owner,sensor,date,latitude,longitude,vertical_datum,wind_speed,wind_to_direction,wind_speed_of_gust,qcFlag 
DISL,ioos:station:DISL:DISL:1,2011-04-01T00:00:00Z,30.2513,-88.0778,9.68,0.78,158.9,-9999.0,'1111122,1111122,1111122' 
DISL,ioos:station:DISL:DISL:1,2011-04-01T00:30:00Z,30.2513,-88.0778,9.68,1.02,188.7,-9999.0,'1111122,1111122,1111122' 
DISL,ioos:station:DISL:DISL:1,2011-04-01T01:00:00Z,30.2513,-88.0778,9.68,0.93,203.4,-9999.0,'1111122,1111122,1111122' 
DISL,ioos:station:DISL:DISL:1,2011-04-01T01:30:00Z,30.2513,-88.0778,9.68,0.99,183.9,-9999.0,'1111122,1111122,1111122' 
DISL,ioos:station:DISL:DISL:1,2011-04-01T02:00:00Z,30.2513,-88.0778,9.68,0.8,164.3,-9999.0,'1111122,1111122,1111122' 
DISL,ioos:station:DISL:DISL:1,2011-04-01T02:30:00Z,30.2513,-88.0778,9.68,0.48,219.9,-9999.0,'1111122,1111122,1111122' 
DISL,ioos:station:DISL:DISL:1,2011-04-01T03:00:00Z,30.2513,-88.0778,9.68,1.59,283.0,-9999.0,'1111122,1111122,1111122' 
DISL,ioos:station:DISL:DISL:1,2011-04-01T03:30:00Z,30.2513,-88.0778,9.68,4.36,318.8,-9999.0,'1111122,1111122,1111122' 
DISL,ioos:station:DISL:DISL:1,2011-04-01T04:00:00Z,30.2513,-88.0778,9.68,4.48,324.7,-9999.0,'1111122,1111122,1111122' 
DISL,ioos:station:DISL:DISL:1,2011-04-01T04:30:00Z,30.2513,-88.0778,9.68,1.63,278.1,-9999.0,'1111122,1111122,1111122' 
DISL,ioos:station:DISL:DISL:1,2011-04-01T05:00:00Z,30.2513,-88.0778,9.68,2.37,283.5,-9999.0,'1111122,1111122,1111122' 
DISL,ioos:station:DISL:DISL:1,2011-04-01T05:30:00Z,30.2513,-88.0778,9.68,5.88,312.5,-9999.0,'1111122,1111122,1111122' 
DISL,ioos:station:DISL:DISL:1,2011-04-01T06:00:00Z,30.2513,-88.0778,9.68,4.44,304.5,-9999.0,'1111122,1111122,1111122' 
DISL,ioos:station:DISL:DISL:1,2011-04-01T06:30:00Z,30.2513,-88.0778,9.68,1.34,264.3,-9999.0,'1111122,1111122,1111122' 
DISL,ioos:station:DISL:DISL:1,2011-04-01T07:00:00Z,30.2513,-88.0778,9.68,0.98,264.2,-9999.0,'1111122,1111122,1111122' 
DISL,ioos:station:DISL:DISL:1,2011-04-01T07:30:00Z,30.2513,-88.0778,9.68,1.23,253.7,-9999.0,'1111122,1111122,1111122' 
DISL,ioos:station:DISL:DISL:1,2011-04-01T08:00:00Z,30.2513,-88.0778,9.68,1.68,261.3,-9999.0,'1111122,1111122,1111122' 
DISL,ioos:station:DISL:DISL:1,2011-04-01T08:30:00Z,30.2513,-88.0778,9.68,2.35,261.4,-9999.0,'1111122,1111122,1111122' 
DISL,ioos:station:DISL:DISL:1,2011-04-01T09:00:00Z,30.2513,-88.0778,9.68,1.66,241.4,-9999.0,'1111122,1111122,1111122' 
DISL,ioos:station:DISL:DISL:1,2011-04-01T09:30:00Z,30.2513,-88.0778,9.68,1.11,262.3,-9999.0,'1111122,1111122,1111122' 
DISL,ioos:station:DISL:DISL:1,2011-04-01T10:00:00Z,30.2513,-88.0778,9.68,1.54,247.4,-9999.0,'1111122,1111122,1111122' 
DISL,ioos:station:DISL:DISL:1,2011-04-01T10:30:00Z,30.2513,-88.0778,9.68,1.67,234.6,-9999.0,'1111122,1111122,1111122' 
DISL,ioos:station:DISL:DISL:1,2011-04-01T11:00:00Z,30.2513,-88.0778,9.68,2.3,238.1,-9999.0,'1111122,1111122,1111122' 
DISL,ioos:station:DISL:DISL:1,2011-04-01T11:30:00Z,30.2513,-88.0778,9.68,1.99,239.4,-9999.0,'1111122,1111122,1111122' 
DISL,ioos:station:DISL:DISL:1,2011-04-01T12:00:00Z,30.2513,-88.0778,9.68,2.17,249.0,-9999.0,'1111122,1111122,1111122' 
DISL,ioos:station:DISL:DISL:1,2011-04-01T12:30:00Z,30.2513,-88.0778,9.68,2.25,242.7,-9999.0,'1111122,1111122,1111122' 
DISL,ioos:station:DISL:DISL:1,2011-04-01T13:00:00Z,30.2513,-88.0778,9.68,2.78,245.1,-9999.0,'1111122,1111122,1111122' 
DISL,ioos:station:DISL:DISL:1,2011-04-01T13:30:00Z,30.2513,-88.0778,9.68,3.25,264.9,-9999.0,'1111122,1111122,1111122' 
DISL,ioos:station:DISL:DISL:1,2011-04-01T14:00:00Z,30.2513,-88.0778,9.68,3.64,263.0,-9999.0,'1111122,1111122,1111122' 
DISL,ioos:station:DISL:DISL:1,2011-04-01T14:30:00Z,30.2513,-88.0778,9.68,4.89,291.9,-9999.0,'1111122,1111122,1111122' 
DISL,ioos:station:DISL:DISL:1,2011-04-01T15:00:00Z,30.2513,-88.0778,9.68,4.59,287.4,-9999.0,'1111122,1111122,1111122' 
DISL,ioos:station:DISL:DISL:1,2011-04-01T15:30:00Z,30.2513,-88.0778,9.68,4.06,293.4,-9999.0,'1111122,1111122,1111122' 
DISL,ioos:station:DISL:DISL:1,2011-04-01T16:00:00Z,30.2513,-88.0778,9.68,3.65,299.1,-9999.0,'1111122,1111122,1111122' 
DISL,ioos:station:DISL:DISL:1,2011-04-01T16:30:00Z,30.2513,-88.0778,9.68,5.1,297.9,-9999.0,'1111122,1111122,1111122' 
DISL,ioos:station:DISL:DISL:1,2011-04-01T17:00:00Z,30.2513,-88.0778,9.68,4.69,290.0,-9999.0,'1111122,1111122,1111122' 
DISL,ioos:station:DISL:DISL:1,2011-04-01T17:30:00Z,30.2513,-88.0778,9.68,3.77,266.1,-9999.0,'1111122,1111122,1111122' 
DISL,ioos:station:DISL:DISL:1,2011-04-01T18:00:00Z,30.2513,-88.0778,9.68,3.52,238.1,-9999.0,'1111122,1111122,1111122' 
DISL,ioos:station:DISL:DISL:1,2011-04-01T18:30:00Z,30.2513,-88.0778,9.68,3.45,224.4,-9999.0,'1111122,1111122,1111122' 
DISL,ioos:station:DISL:DISL:1,2011-04-01T19:00:00Z,30.2513,-88.0778,9.68,4.03,232.0,-9999.0,'1111122,1111122,1111122' 
DISL,ioos:station:DISL:DISL:1,2011-04-01T19:30:00Z,30.2513,-88.0778,9.68,4.08,235.9,-9999.0,'1111122,1111122,1111122' 
DISL,ioos:station:DISL:DISL:1,2011-04-01T20:00:00Z,30.2513,-88.0778,9.68,3.94,222.0,-9999.0,'1111122,1111122,1111122' 
DISL,ioos:station:DISL:DISL:1,2011-04-01T20:30:00Z,30.2513,-88.0778,9.68,4.12,235.4,-9999.0,'1111122,1111122,1111122' 
DISL,ioos:station:DISL:DISL:1,2011-04-01T21:00:00Z,30.2513,-88.0778,9.68,4.68,219.7,-9999.0,'1111122,1111122,1111122' 
DISL,ioos:station:DISL:DISL:1,2011-04-01T21:30:00Z,30.2513,-88.0778,9.68,4.36,218.1,-9999.0,'1111122,1111122,1111122' 
DISL,ioos:station:DISL:DISL:1,2011-04-01T22:00:00Z,30.2513,-88.0778,9.68,4.85,207.2,-9999.0,'1111122,1111122,1111122' 
DISL,ioos:station:DISL:DISL:1,2011-04-01T22:30:00Z,30.2513,-88.0778,9.68,4.82,223.2,-9999.0,'1111122,1111122,1111122' 
DISL,ioos:station:DISL:DISL:1,2011-04-01T23:00:00Z,30.2513,-88.0778,9.68,4.84,214.3,-9999.0,'1111122,1111122,1111122' 
DISL,ioos:station:DISL:DISL:1,2011-04-01T23:30:00Z,30.2513,-88.0778,9.68,4.84,219.5,-9999.0,'1111122,1111122,1111122' 
DISL,ioos:station:DISL:DISL:1,2011-04-02T00:00:00Z,30.2513,-88.0778,9.68,4.54,217.6,-9999.0,'1111122,1111122,1111122' 
DISL,ioos:station:DISL:DISL:1,2011-04-02T00:30:00Z,30.2513,-88.0778,9.68,2.92,219.1,-9999.0,'1111122,1111122,1111122' 
DISL,ioos:station:DISL:DISL:1,2011-04-02T01:00:00Z,30.2513,-88.0778,9.68,2.57,221.4,-9999.0,'1111122,1111122,1111122' 
DISL,ioos:station:DISL:DISL:1,2011-04-02T01:30:00Z,30.2513,-88.0778,9.68,3.28,229.6,-9999.0,'1111122,1111122,1111122' 
DISL,ioos:station:DISL:DISL:1,2011-04-02T02:00:00Z,30.2513,-88.0778,9.68,3.57,210.3,-9999.0,'1111122,1111122,1111122' 
DISL,ioos:station:DISL:DISL:1,2011-04-02T02:30:00Z,30.2513,-88.0778,9.68,3.52,213.3,-9999.0,'1111122,1111122,1111122' 
DISL,ioos:station:DISL:DISL:1,2011-04-02T03:00:00Z,30.2513,-88.0778,9.68,3.89,220.8,-9999.0,'1111122,1111122,1111122' 
DISL,ioos:station:DISL:DISL:1,2011-04-02T03:30:00Z,30.2513,-88.0778,9.68,4.09,216.8,-9999.0,'1111122,1111122,1111122' 
DISL,ioos:station:DISL:DISL:1,2011-04-02T04:00:00Z,30.2513,-88.0778,9.68,3.21,229.0,-9999.0,'1111122,1111122,1111122' 
DISL,ioos:station:DISL:DISL:1,2011-04-02T04:30:00Z,30.2513,-88.0778,9.68,3.69,221.4,-9999.0,'1111122,1111122,1111122' 
DISL,ioos:station:DISL:DISL:1,2011-04-02T05:00:00Z,30.2513,-88.0778,9.68,3.17,236.7,-9999.0,'1111122,1111122,1111122' 
DISL,ioos:station:DISL:DISL:1,2011-04-02T05:30:00Z,30.2513,-88.0778,9.68,3.11,243.3,-9999.0,'1111122,1111122,1111122' 
DISL,ioos:station:DISL:DISL:1,2011-04-02T06:00:00Z,30.2513,-88.0778,9.68,2.77,239.7,-9999.0,'1111122,1111122,1111122' 
DISL,ioos:station:DISL:DISL:1,2011-04-02T06:30:00Z,30.2513,-88.0778,9.68,2.93,235.8,-9999.0,'1111122,1111122,1111122' 
DISL,ioos:station:DISL:DISL:1,2011-04-02T07:00:00Z,30.2513,-88.0778,9.68,2.27,245.4,-9999.0,'1111122,1111122,1111122' 
DISL,ioos:station:DISL:DISL:1,2011-04-02T07:30:00Z,30.2513,-88.0778,9.68,2.83,259.2,-9999.0,'1111122,1111122,1111122' 
DISL,ioos:station:DISL:DISL:1,2011-04-02T08:00:00Z,30.2513,-88.0778,9.68,2.22,263.0,-9999.0,'1111122,1111122,1111122' 
DISL,ioos:station:DISL:DISL:1,2011-04-02T08:30:00Z,30.2513,-88.0778,9.68,2.04,253.7,-9999.0,'1111122,1111122,1111122' 
DISL,ioos:station:DISL:DISL:1,2011-04-02T09:00:00Z,30.2513,-88.0778,9.68,1.74,247.4,-9999.0,'1111122,1111122,1111122' 
DISL,ioos:station:DISL:DISL:1,2011-04-02T09:30:00Z,30.2513,-88.0778,9.68,1.84,241.9,-9999.0,'1111122,1111122,1111122' 
DISL,ioos:station:DISL:DISL:1,2011-04-02T10:00:00Z,30.2513,-88.0778,9.68,1.65,265.2,-9999.0,'1111122,1111122,1111122' 
DISL,ioos:station:DISL:DISL:1,2011-04-02T10:30:00Z,30.2513,-88.0778,9.68,1.79,256.6,-9999.0,'1111122,1111122,1111122' 
DISL,ioos:station:DISL:DISL:1,2011-04-02T11:00:00Z,30.2513,-88.0778,9.68,1.66,264.5,-9999.0,'1111122,1111122,1111122' 
DISL,ioos:station:DISL:DISL:1,2011-04-02T11:30:00Z,30.2513,-88.0778,9.68,2.46,276.5,-9999.0,'1111122,1111122,1111122' 
DISL,ioos:station:DISL:DISL:1,2011-04-02T12:00:00Z,30.2513,-88.0778,9.68,4.57,319.7,-9999.0,'1111122,1111122,1111122' 
DISL,ioos:station:DISL:DISL:1,2011-04-02T12:30:00Z,30.2513,-88.0778,9.68,3.76,315.9,-9999.0,'1111122,1111122,1111122' 
DISL,ioos:station:DISL:DISL:1,2011-04-02T13:00:00Z,30.2513,-88.0778,9.68,2.67,316.2,-9999.0,'1111122,1111122,1111122' 
DISL,ioos:station:DISL:DISL:1,2011-04-02T13:30:00Z,30.2513,-88.0778,9.68,3.27,298.6,-9999.0,'1111122,1111122,1111122' 
DISL,ioos:station:DISL:DISL:1,2011-04-02T14:00:00Z,30.2513,-88.0778,9.68,2.34,322.0,-9999.0,'1111122,1111122,1111122' 
DISL,ioos:station:DISL:DISL:1,2011-04-02T14:30:00Z,30.2513,-88.0778,9.68,1.6,327.8,-9999.0,'1111122,1111122,1111122' 
DISL,ioos:station:DISL:DISL:1,2011-04-02T15:00:00Z,30.2513,-88.0778,9.68,1.47,354.7,-9999.0,'1111122,1111122,1111122' 
DISL,ioos:station:DISL:DISL:1,2011-04-02T15:30:00Z,30.2513,-88.0778,9.68,2.06,5.067,-9999.0,'1111122,1111122,1111122' 
DISL,ioos:station:DISL:DISL:1,2011-04-02T16:00:00Z,30.2513,-88.0778,9.68,1.0,27.12,-9999.0,'1111122,1111122,1111122' 
DISL,ioos:station:DISL:DISL:1,2011-04-02T16:30:00Z,30.2513,-88.0778,9.68,1.93,57.24,-9999.0,'1111122,1111122,1111122' 
DISL,ioos:station:DISL:DISL:1,2011-04-02T17:00:00Z,30.2513,-88.0778,9.68,1.8,80.8,-9999.0,'1111122,1111122,1111122' 
DISL,ioos:station:DISL:DISL:1,2011-04-02T17:30:00Z,30.2513,-88.0778,9.68,2.82,168.5,-9999.0,'1111122,1111122,1111122' 
DISL,ioos:station:DISL:DISL:1,2011-04-02T18:00:00Z,30.2513,-88.0778,9.68,2.49,194.0,-9999.0,'1111122,1111122,1111122' 
DISL,ioos:station:DISL:DISL:1,2011-04-02T18:30:00Z,30.2513,-88.0778,9.68,3.07,198.4,-9999.0,'1111122,1111122,1111122' 
DISL,ioos:station:DISL:DISL:1,2011-04-02T19:00:00Z,30.2513,-88.0778,9.68,3.48,204.5,-9999.0,'1111122,1111122,1111122' 
DISL,ioos:station:DISL:DISL:1,2011-04-02T19:30:00Z,30.2513,-88.0778,9.68,3.81,210.0,-9999.0,'1111122,1111122,1111122' 
DISL,ioos:station:DISL:DISL:1,2011-04-02T20:00:00Z,30.2513,-88.0778,9.68,3.63,217.3,-9999.0,'1111122,1111122,1111122' 
DISL,ioos:station:DISL:DISL:1,2011-04-02T20:30:00Z,30.2513,-88.0778,9.68,4.02,206.0,-9999.0,'1111122,1111122,1111122' 
DISL,ioos:station:DISL:DISL:1,2011-04-02T21:00:00Z,30.2513,-88.0778,9.68,3.06,202.9,-9999.0,'1111122,1111122,1111122' 
DISL,ioos:station:DISL:DISL:1,2011-04-02T21:30:00Z,30.2513,-88.0778,9.68,3.12,204.5,-9999.0,'1111122,1111122,1111122' 
DISL,ioos:station:DISL:DISL:1,2011-04-02T22:00:00Z,30.2513,-88.0778,9.68,3.31,216.0,-9999.0,'1111122,1111122,1111122' 
DISL,ioos:station:DISL:DISL:1,2011-04-02T22:30:00Z,30.2513,-88.0778,9.68,2.55,204.7,-9999.0,'1111122,1111122,1111122' 
DISL,ioos:station:DISL:DISL:1,2011-04-02T23:00:00Z,30.2513,-88.0778,9.68,2.52,217.0,-9999.0,'1111122,1111122,1111122' 
DISL,ioos:station:DISL:DISL:1,2011-04-02T23:30:00Z,30.2513,-88.0778,9.68,2.11,206.6,-9999.0,'1111122,1111122,1111122' 
DISL,ioos:station:DISL:DISL:1,2011-04-03T00:00:00Z,30.2513,-88.0778,9.68,1.64,233.8,-9999.0,'1111122,1111122,1111122' 
DISL,ioos:station:DISL:DISL:1,2011-04-03T00:30:00Z,30.2513,-88.0778,9.68,1.87,193.6,-9999.0,'1111122,1111122,1111122' 
DISL,ioos:station:DISL:DISL:1,2011-04-03T01:00:00Z,30.2513,-88.0778,9.68,2.32,207.9,-9999.0,'1111122,1111122,1111122' 
DISL,ioos:station:DISL:DISL:1,2011-04-03T01:30:00Z,30.2513,-88.0778,9.68,2.53,203.3,-9999.0,'1111122,1111122,1111122' 
DISL,ioos:station:DISL:DISL:1,2011-04-03T02:00:00Z,30.2513,-88.0778,9.68,2.26,208.1,-9999.0,'1111122,1111122,1111122' 
DISL,ioos:station:DISL:DISL:1,2011-04-03T02:30:00Z,30.2513,-88.0778,9.68,2.73,204.5,-9999.0,'1111122,1111122,1111122' 
DISL,ioos:station:DISL:DISL:1,2011-04-03T03:00:00Z,30.2513,-88.0778,9.68,2.27,205.1,-9999.0,'1111122,1111122,1111122' 
DISL,ioos:station:DISL:DISL:1,2011-04-03T03:30:00Z,30.2513,-88.0778,9.68,2.98,212.6,-9999.0,'1111122,1111122,1111122' 
DISL,ioos:station:DISL:DISL:1,2011-04-03T04:00:00Z,30.2513,-88.0778,9.68,1.63,192.2,-9999.0,'1111122,1111122,1111122' 
DISL,ioos:station:DISL:DISL:1,2011-04-03T04:30:00Z,30.2513,-88.0778,9.68,1.87,177.8,-9999.0,'1111122,1111122,1111122' 
DISL,ioos:station:DISL:DISL:1,2011-04-03T05:00:00Z,30.2513,-88.0778,9.68,1.54,193.4,-9999.0,'1111122,1111122,1111122' 
DISL,ioos:station:DISL:DISL:1,2011-04-03T05:30:00Z,30.2513,-88.0778,9.68,1.35,196.4,-9999.0,'1111122,1111122,1111122' 
DISL,ioos:station:DISL:DISL:1,2011-04-03T06:00:00Z,30.2513,-88.0778,9.68,1.67,184.8,-9999.0,'1111122,1111122,1111122' 
DISL,ioos:station:DISL:DISL:1,2011-04-03T06:30:00Z,30.2513,-88.0778,9.68,2.06,184.9,-9999.0,'1111122,1111122,1111122' 
DISL,ioos:station:DISL:DISL:1,2011-04-03T07:00:00Z,30.2513,-88.0778,9.68,2.39,166.1,-9999.0,'1111122,1111122,1111122' 
DISL,ioos:station:DISL:DISL:1,2011-04-03T07:30:00Z,30.2513,-88.0778,9.68,2.34,177.0,-9999.0,'1111122,1111122,1111122' 
DISL,ioos:station:DISL:DISL:1,2011-04-03T08:00:00Z,30.2513,-88.0778,9.68,2.23,175.6,-9999.0,'1111122,1111122,1111122' 
DISL,ioos:station:DISL:DISL:1,2011-04-03T08:30:00Z,30.2513,-88.0778,9.68,2.46,169.1,-9999.0,'1111122,1111122,1111122' 
DISL,ioos:station:DISL:DISL:1,2011-04-03T09:00:00Z,30.2513,-88.0778,9.68,2.67,169.4,-9999.0,'1111122,1111122,1111122' 
DISL,ioos:station:DISL:DISL:1,2011-04-03T09:30:00Z,30.2513,-88.0778,9.68,3.0,165.1,-9999.0,'1111122,1111122,1111122' 
DISL,ioos:station:DISL:DISL:1,2011-04-03T10:00:00Z,30.2513,-88.0778,9.68,2.62,159.9,-9999.0,'1111122,1111122,1111122' 
DISL,ioos:station:DISL:DISL:1,2011-04-03T10:30:00Z,30.2513,-88.0778,9.68,2.84,156.2,-9999.0,'1111122,1111122,1111122' 
DISL,ioos:station:DISL:DISL:1,2011-04-03T11:00:00Z,30.2513,-88.0778,9.68,2.84,156.7,-9999.0,'1111122,1111122,1111122' 
DISL,ioos:station:DISL:DISL:1,2011-04-03T11:30:00Z,30.2513,-88.0778,9.68,3.31,154.7,-9999.0,'1111122,1111122,1111122' 
DISL,ioos:station:DISL:DISL:1,2011-04-03T12:00:00Z,30.2513,-88.0778,9.68,3.11,149.8,-9999.0,'1111122,1111122,1111122' 
DISL,ioos:station:DISL:DISL:1,2011-04-03T12:30:00Z,30.2513,-88.0778,9.68,3.14,151.0,-9999.0,'1111122,1111122,1111122' 
DISL,ioos:station:DISL:DISL:1,2011-04-03T13:00:00Z,30.2513,-88.0778,9.68,3.75,143.5,-9999.0,'1111122,1111122,1111122' 
DISL,ioos:station:DISL:DISL:1,2011-04-03T13:30:00Z,30.2513,-88.0778,9.68,3.71,142.6,-9999.0,'1111122,1111122,1111122' 
DISL,ioos:station:DISL:DISL:1,2011-04-03T14:00:00Z,30.2513,-88.0778,9.68,5.14,141.5,-9999.0,'1111122,1111122,1111122' 
DISL,ioos:station:DISL:DISL:1,2011-04-03T14:30:00Z,30.2513,-88.0778,9.68,4.41,142.5,-9999.0,'1111122,1111122,1111122' 
DISL,ioos:station:DISL:DISL:1,2011-04-03T15:00:00Z,30.2513,-88.0778,9.68,4.44,134.9,-9999.0,'1111122,1111122,1111122' 
DISL,ioos:station:DISL:DISL:1,2011-04-03T15:30:00Z,30.2513,-88.0778,9.68,4.33,129.0,-9999.0,'1111122,1111122,1111122' 
DISL,ioos:station:DISL:DISL:1,2011-04-03T16:00:00Z,30.2513,-88.0778,9.68,4.16,130.6,-9999.0,'1111122,1111122,1111122' 
DISL,ioos:station:DISL:DISL:1,2011-04-03T16:30:00Z,30.2513,-88.0778,9.68,4.47,143.0,-9999.0,'1111122,1111122,1111122' 
DISL,ioos:station:DISL:DISL:1,2011-04-03T17:00:00Z,30.2513,-88.0778,9.68,4.43,137.1,-9999.0,'1111122,1111122,1111122' 
DISL,ioos:station:DISL:DISL:1,2011-04-03T17:30:00Z,30.2513,-88.0778,9.68,5.31,137.3,-9999.0,'1111122,1111122,1111122' 
DISL,ioos:station:DISL:DISL:1,2011-04-03T18:00:00Z,30.2513,-88.0778,9.68,5.15,137.6,-9999.0,'1111122,1111122,1111122' 
DISL,ioos:station:DISL:DISL:1,2011-04-03T18:30:00Z,30.2513,-88.0778,9.68,5.06,130.4,-9999.0,'1111122,1111122,1111122' 
DISL,ioos:station:DISL:DISL:1,2011-04-03T19:00:00Z,30.2513,-88.0778,9.68,6.07,141.5,-9999.0,'1111122,1111122,1111122' 
DISL,ioos:station:DISL:DISL:1,2011-04-03T19:30:00Z,30.2513,-88.0778,9.68,5.44,136.3,-9999.0,'1111122,1111122,1111122' 
DISL,ioos:station:DISL:DISL:1,2011-04-03T20:00:00Z,30.2513,-88.0778,9.68,4.85,134.0,-9999.0,'1111122,1111122,1111122' 
DISL,ioos:station:DISL:DISL:1,2011-04-03T20:30:00Z,30.2513,-88.0778,9.68,4.94,134.1,-9999.0,'1111122,1111122,1111122' 
DISL,ioos:station:DISL:DISL:1,2011-04-03T21:00:00Z,30.2513,-88.0778,9.68,4.77,147.4,-9999.0,'1111122,1111122,1111122' 
DISL,ioos:station:DISL:DISL:1,2011-04-03T21:30:00Z,30.2513,-88.0778,9.68,4.58,139.2,-9999.0,'1111122,1111122,1111122' 
DISL,ioos:station:DISL:DISL:1,2011-04-03T22:00:00Z,30.2513,-88.0778,9.68,4.72,144.6,-9999.0,'1111122,1111122,1111122' 
DISL,ioos:station:DISL:DISL:1,2011-04-03T22:30:00Z,30.2513,-88.0778,9.68,5.16,142.1,-9999.0,'1111122,1111122,1111122' 
DISL,ioos:station:DISL:DISL:1,2011-04-03T23:00:00Z,30.2513,-88.0778,9.68,5.69,144.8,-9999.0,'1111122,1111122,1111122' 
DISL,ioos:station:DISL:DISL:1,2011-04-03T23:30:00Z,30.2513,-88.0778,9.68,5.49,141.2,-9999.0,'1111122,1111122,1111122' 
DISL,ioos:station:DISL:DISL:1,2011-04-04T00:00:00Z,30.2513,-88.0778,9.68,5.21,139.0,-9999.0,'1111122,1111122,1111122' 
DISL,ioos:station:DISL:DISL:1,2011-04-04T00:30:00Z,30.2513,-88.0778,9.68,5.38,134.7,-9999.0,'1111122,1111122,1111122' 
DISL,ioos:station:DISL:DISL:1,2011-04-04T01:00:00Z,30.2513,-88.0778,9.68,6.35,139.1,-9999.0,'1111122,1111122,1111122' 
DISL,ioos:station:DISL:DISL:1,2011-04-04T01:30:00Z,30.2513,-88.0778,9.68,5.85,145.1,-9999.0,'1111122,1111122,1111122' 
DISL,ioos:station:DISL:DISL:1,2011-04-04T02:00:00Z,30.2513,-88.0778,9.68,6.24,146.1,-9999.0,'1111122,1111122,1111122' 
DISL,ioos:station:DISL:DISL:1,2011-04-04T02:30:00Z,30.2513,-88.0778,9.68,5.38,145.6,-9999.0,'1111122,1111122,1111122' 
DISL,ioos:station:DISL:DISL:1,2011-04-04T03:00:00Z,30.2513,-88.0778,9.68,5.19,146.6,-9999.0,'1111122,1111122,1111122' 
DISL,ioos:station:DISL:DISL:1,2011-04-04T03:30:00Z,30.2513,-88.0778,9.68,4.63,145.5,-9999.0,'1111122,1111122,1111122' 
DISL,ioos:station:DISL:DISL:1,2011-04-04T04:00:00Z,30.2513,-88.0778,9.68,4.03,146.9,-9999.0,'1111122,1111122,1111122' 
DISL,ioos:station:DISL:DISL:1,2011-04-04T04:30:00Z,30.2513,-88.0778,9.68,4.08,148.7,-9999.0,'1111122,1111122,1111122' 
DISL,ioos:station:DISL:DISL:1,2011-04-04T05:00:00Z,30.2513,-88.0778,9.68,4.11,150.0,-9999.0,'1111122,1111122,1111122' 
DISL,ioos:station:DISL:DISL:1,2011-04-04T05:30:00Z,30.2513,-88.0778,9.68,5.32,155.6,-9999.0,'1111122,1111122,1111122' 
DISL,ioos:station:DISL:DISL:1,2011-04-04T06:00:00Z,30.2513,-88.0778,9.68,5.24,147.0,-9999.0,'1111122,1111122,1111122' 
DISL,ioos:station:DISL:DISL:1,2011-04-04T06:30:00Z,30.2513,-88.0778,9.68,4.87,147.9,-9999.0,'1111122,1111122,1111122' 
DISL,ioos:station:DISL:DISL:1,2011-04-04T07:00:00Z,30.2513,-88.0778,9.68,5.29,155.2,-9999.0,'1111122,1111122,1111122' 
DISL,ioos:station:DISL:DISL:1,2011-04-04T07:30:00Z,30.2513,-88.0778,9.68,5.41,154.1,-9999.0,'1111122,1111122,1111122' 
DISL,ioos:station:DISL:DISL:1,2011-04-04T08:00:00Z,30.2513,-88.0778,9.68,4.94,155.4,-9999.0,'1111122,1111122,1111122' 
DISL,ioos:station:DISL:DISL:1,2011-04-04T08:30:00Z,30.2513,-88.0778,9.68,5.93,155.7,-9999.0,'1111122,1111122,1111122' 
DISL,ioos:station:DISL:DISL:1,2011-04-04T09:00:00Z,30.2513,-88.0778,9.68,6.37,152.4,-9999.0,'1111122,1111122,1111122' 
DISL,ioos:station:DISL:DISL:1,2011-04-04T09:30:00Z,30.2513,-88.0778,9.68,5.95,160.7,-9999.0,'1111122,1111122,1111122' 
DISL,ioos:station:DISL:DISL:1,2011-04-04T10:00:00Z,30.2513,-88.0778,9.68,5.31,151.2,-9999.0,'1111122,1111122,1111122' 
DISL,ioos:station:DISL:DISL:1,2011-04-04T10:30:00Z,30.2513,-88.0778,9.68,4.89,165.5,-9999.0,'1111122,1111122,1111122' 
DISL,ioos:station:DISL:DISL:1,2011-04-04T11:00:00Z,30.2513,-88.0778,9.68,4.68,160.9,-9999.0,'1111122,1111122,1111122' 
DISL,ioos:station:DISL:DISL:1,2011-04-04T11:30:00Z,30.2513,-88.0778,9.68,4.28,157.3,-9999.0,'1111122,1111122,1111122' 
DISL,ioos:station:DISL:DISL:1,2011-04-04T12:00:00Z,30.2513,-88.0778,9.68,4.59,151.5,-9999.0,'1111122,1111122,1111122' 
DISL,ioos:station:DISL:DISL:1,2011-04-04T12:30:00Z,30.2513,-88.0778,9.68,4.68,161.4,-9999.0,'1111122,1111122,1111122' 
DISL,ioos:station:DISL:DISL:1,2011-04-04T13:00:00Z,30.2513,-88.0778,9.68,4.82,160.5,-9999.0,'1111122,1111122,1111122' 
DISL,ioos:station:DISL:DISL:1,2011-04-04T13:30:00Z,30.2513,-88.0778,9.68,4.6,157.0,-9999.0,'1111122,1111122,1111122' 
DISL,ioos:station:DISL:DISL:1,2011-04-04T14:00:00Z,30.2513,-88.0778,9.68,4.71,158.5,-9999.0,'1111122,1111122,1111122' 
DISL,ioos:station:DISL:DISL:1,2011-04-04T14:30:00Z,30.2513,-88.0778,9.68,4.62,163.9,-9999.0,'1111122,1111122,1111122' 
DISL,ioos:station:DISL:DISL:1,2011-04-04T15:00:00Z,30.2513,-88.0778,9.68,5.4,155.2,-9999.0,'1111122,1111122,1111122' 
DISL,ioos:station:DISL:DISL:1,2011-04-04T15:30:00Z,30.2513,-88.0778,9.68,6.15,155.6,-9999.0,'1111122,1111122,1111122' 
DISL,ioos:station:DISL:DISL:1,2011-04-04T16:00:00Z,30.2513,-88.0778,9.68,4.26,161.8,-9999.0,'1111122,1111122,1111122' 
DISL,ioos:station:DISL:DISL:1,2011-04-04T16:30:00Z,30.2513,-88.0778,9.68,4.66,175.5,-9999.0,'1111122,1111122,1111122' 
DISL,ioos:station:DISL:DISL:1,2011-04-04T17:00:00Z,30.2513,-88.0778,9.68,4.46,164.0,-9999.0,'1111122,1111122,1111122' 
DISL,ioos:station:DISL:DISL:1,2011-04-04T17:30:00Z,30.2513,-88.0778,9.68,3.31,166.6,-9999.0,'1111122,1111122,1111122' 
DISL,ioos:station:DISL:DISL:1,2011-04-04T18:00:00Z,30.2513,-88.0778,9.68,4.38,157.0,-9999.0,'1111122,1111122,1111122' 
DISL,ioos:station:DISL:DISL:1,2011-04-04T18:30:00Z,30.2513,-88.0778,9.68,4.81,156.2,-9999.0,'1111122,1111122,1111122' 
DISL,ioos:station:DISL:DISL:1,2011-04-04T19:00:00Z,30.2513,-88.0778,9.68,4.03,155.8,-9999.0,'1111122,1111122,1111122' 
DISL,ioos:station:DISL:DISL:1,2011-04-04T19:30:00Z,30.2513,-88.0778,9.68,3.77,156.1,-9999.0,'1111122,1111122,1111122' 
DISL,ioos:station:DISL:DISL:1,2011-04-04T20:00:00Z,30.2513,-88.0778,9.68,3.27,152.3,-9999.0,'1111122,1111122,1111122' 
DISL,ioos:station:DISL:DISL:1,2011-04-04T20:30:00Z,30.2513,-88.0778,9.68,2.2,160.8,-9999.0,'1111122,1111122,1111122' 
DISL,ioos:station:DISL:DISL:1,2011-04-04T21:00:00Z,30.2513,-88.0778,9.68,2.69,162.0,-9999.0,'1111122,1111122,1111122' 
DISL,ioos:station:DISL:DISL:1,2011-04-04T21:30:00Z,30.2513,-88.0778,9.68,3.39,158.8,-9999.0,'1111122,1111122,1111122' 
DISL,ioos:station:DISL:DISL:1,2011-04-04T22:00:00Z,30.2513,-88.0778,9.68,4.7,153.1,-9999.0,'1111122,1111122,1111122' 
DISL,ioos:station:DISL:DISL:1,2011-04-04T22:30:00Z,30.2513,-88.0778,9.68,4.66,169.3,-9999.0,'1111122,1111122,1111122' 
DISL,ioos:station:DISL:DISL:1,2011-04-04T23:00:00Z,30.2513,-88.0778,9.68,4.77,165.7,-9999.0,'1111122,1111122,1111122' 
DISL,ioos:station:DISL:DISL:1,2011-04-04T23:30:00Z,30.2513,-88.0778,9.68,3.81,170.2,-9999.0,'1111122,1111122,1111122' 
DISL,ioos:station:DISL:DISL:1,2011-04-05T00:00:00Z,30.2513,-88.0778,9.68,6.71,169.2,-9999.0,'1111122,1111122,1111122' 
DISL,ioos:station:DISL:DISL:1,2011-04-05T00:30:00Z,30.2513,-88.0778,9.68,7.79,172.4,-9999.0,'1111122,1111122,1111122' 
DISL,ioos:station:DISL:DISL:1,2011-04-05T01:00:00Z,30.2513,-88.0778,9.68,6.16,174.1,-9999.0,'1111122,1111122,1111122' 
DISL,ioos:station:DISL:DISL:1,2011-04-05T01:30:00Z,30.2513,-88.0778,9.68,5.88,192.0,-9999.0,'1111122,1111122,1111122' 
DISL,ioos:station:DISL:DISL:1,2011-04-05T02:00:00Z,30.2513,-88.0778,9.68,6.78,212.6,-9999.0,'1111122,1111122,1111122' 
DISL,ioos:station:DISL:DISL:1,2011-04-05T02:30:00Z,30.2513,-88.0778,9.68,7.1,221.2,-9999.0,'1111122,1111122,1111122' 
DISL,ioos:station:DISL:DISL:1,2011-04-05T03:00:00Z,30.2513,-88.0778,9.68,12.02,292.5,-9999.0,'1111122,1111122,1111122' 
DISL,ioos:station:DISL:DISL:1,2011-04-05T03:30:00Z,30.2513,-88.0778,9.68,12.63,296.8,-9999.0,'1111122,1111122,1111122' 